Location: *
(45.0500°N, 12.0500°E)
Time: 23:25:30
(UTC+00:00)

Cosmos 1140 Rocket - Pass Details

Date: 09 April 2020
Orbit: 745 x 767 km, 74.1° (Epoch: 26 May)

Event Time Altitude Azimuth Distance (km) Brightness Sun altitude
Rises 18:23:08 0° 177° (S) 3,201 6.5 -6.4°
Reaches altitude 10° 18:25:37 10° 170° (S) 2,277 5.7 -6.9°
Maximum altitude 18:30:23 39° 103° (ESE) 1,123 3.9 -7.7°
Drops below altitude 10° 18:35:09 10° 35° (NE) 2,280 5.8 -8.4°
Sets 18:37:38 0° 28° (NNE) 3,206 6.6 -8.9°
